Pendleton, OR

1:25 PM PST on December 06, 2019 (GMT -0800)
Eastern Oreg Regional At Pendleton

Weather History for KPDT - November, 2019

Change the Weather History Date:

Saturday, November 16, 2019

  Actual Average Record
Temperature  
Mean Temperature 48 °F 41 °F  
Max Temperature 59 °F 49 °F 70 °F (1896)
Min Temperature 38 °F 34 °F -1 °F (1909)
Degree Days  
Heating Degree Days 16 24  
Month to date heating degree days 366 339  
Since 1 July heating degree days 1057 881  
Cooling Degree Days 0 0  
Month to date cooling degree days 0 0  
Year to date cooling degree days 640 636  
Moisture  
Dew Point 38 °F    
Average Humidity 71    
Maximum Humidity 82    
Minimum Humidity 47    
Precipitation  
Precipitation 0.00 in 0.05 in 0.63 in (1986)
Month to date precipitation 0.10 0.80  
Year to date precipitation 11.41 10.47  
Sea Level Pressure  
Sea Level Pressure 30.29 in    
Wind  
Wind Speed 5 mph ()    
Max Wind Speed 17 mph    
Max Gust Speed 21 mph    
Visibility 10.0 miles    
Events      
T = Trace of Precipitation, MM = Missing Value Source: Averaged Metar Reports

Daily Weather History Graph

Daily Weather History Graph

Search for Another Location

Airport or City:

Astronomy

Nov. 16, 2019 Rise Set
Actual Time 6:56 AM PST 4:23 PM PST
Civil Twilight 6:23 AM PST 4:55 PM PST
Nautical Twilight 5:47 AM PST 5:32 PM PST
Astronomical Twilight 5:12 AM PST 6:07 PM PST
Moon 7:55 PM PST (11/16) 11:00 AM PST (11/16)
Length of Visible Light 10h 32m
Length of Day
9h 27m
Waning Gibbous, 81% of the Moon is Illuminated
Nov 16
Waning Gibbous
Nov 19
Last Quarter
Nov 26
New
Dec 3
First Quarter
Dec 11
Full

Hourly Weather History & Observations

Time (PST) Temp. Windchill Dew Point Humidity Pressure Visibility Wind Dir Wind Speed Gust Speed Precip Events Conditions
12:53 AM 46.0 °F 43.1 °F 37.9 °F 73% 30.26 in 10.0 mi West 5.8 mph - N/A   Clear
1:53 AM 43.0 °F 41.3 °F 37.0 °F 80% 30.30 in 10.0 mi SSE 3.5 mph - N/A   Clear
2:53 AM 41.0 °F 35.8 °F 36.0 °F 82% 30.30 in 10.0 mi SSE 8.1 mph - N/A   Clear
3:53 AM 41.0 °F 36.4 °F 35.1 °F 79% 30.31 in 10.0 mi SE 6.9 mph - N/A   Clear
4:53 AM 41.0 °F 36.4 °F 35.1 °F 79% 30.33 in 10.0 mi SSE 6.9 mph - N/A   Clear
5:53 AM 39.9 °F 34.5 °F 34.0 °F 79% 30.33 in 10.0 mi South 8.1 mph - N/A   Scattered Clouds
6:53 AM 39.0 °F 34.0 °F 34.0 °F 82% 30.32 in 10.0 mi South 6.9 mph - N/A   Partly Cloudy
7:53 AM 41.0 °F 37.1 °F 35.1 °F 79% 30.35 in 10.0 mi South 5.8 mph - N/A   Clear
8:53 AM 46.0 °F 43.1 °F 37.0 °F 71% 30.34 in 10.0 mi SSE 5.8 mph - N/A   Clear
9:53 AM 50.0 °F - 37.9 °F 63% 30.34 in 10.0 mi SE 4.6 mph - N/A   Clear
10:53 AM 54.0 °F - 39.0 °F 57% 30.34 in 10.0 mi Calm Calm - N/A   Clear
11:53 AM 57.0 °F - 39.0 °F 51% 30.30 in 10.0 mi Calm Calm - N/A   Clear
12:53 PM 57.9 °F - 37.9 °F 47% 30.29 in 10.0 mi NNW 4.6 mph - N/A   Mostly Cloudy
1:53 PM 57.0 °F - 39.0 °F 51% 30.27 in 10.0 mi NW 5.8 mph - N/A   Overcast
2:53 PM 55.0 °F - 41.0 °F 59% 30.27 in 10.0 mi NNW 6.9 mph - N/A   Overcast
3:53 PM 54.0 °F - 44.1 °F 69% 30.26 in 10.0 mi NNE 4.6 mph - N/A   Overcast
4:53 PM 51.1 °F - 43.0 °F 74% 30.27 in 10.0 mi ENE 9.2 mph - N/A   Overcast
5:53 PM 50.0 °F - 42.1 °F 74% 30.27 in 10.0 mi East 6.9 mph - N/A   Overcast
6:53 PM 46.9 °F - 41.0 °F 80% 30.26 in 10.0 mi East 4.6 mph - N/A   Clear
7:53 PM 46.9 °F - 39.9 °F 77% 30.26 in 10.0 mi SE 4.6 mph - N/A   Mostly Cloudy
8:53 PM 46.0 °F 42.5 °F 39.9 °F 79% 30.26 in 10.0 mi ESE 6.9 mph - N/A   Mostly Cloudy
9:53 PM 46.0 °F 41.9 °F 39.0 °F 76% 30.22 in 10.0 mi SE 8.1 mph - N/A   Scattered Clouds
10:53 PM 48.0 °F - 37.9 °F 68% 30.22 in 10.0 mi SSE 5.8 mph - N/A   Mostly Cloudy
11:53 PM 46.9 °F - 37.9 °F 71% 30.22 in 10.0 mi SSE 8.1 mph - N/A   Overcast